Погода в Чалдонке

Россия / Забайкальский край     53°46′53″N   119°13′12″E
темп.,
°C
ветер,
м/с
пор.,
м/с
влажн.,
%
обл.,
%
осадки,
мм/ч
давл.,
гПа
погр.,
м
7 марта, вс
вс700:00−20з1197100 0.1 102520
03:00−24з129964 0.1 102520
06:00−25з129918 0.0 102620
09:00−22з219615 0.0 102861
12:00−13зюз23800 0.0 1025370
15:00−9зюз24780 0.0 1023517
18:00−10ююз22900 0.0 102133
21:00−15ююз22976 0.0 102321
8 марта, пн
пн800:00−16юз229139 0.0 102021
03:00−17зюз229446 0.0 101923
06:00−16зюз229787 0.0 101639
09:00−14юз239693 0.0 1015102
12:00−7зюз388574 0.0 1011480
15:00−3з7136661 0.1 10092037
18:00−6зсз5127184 0.1 10101294
21:00−12сз3108088 0.1 1014354
9 марта, вт
вт900:00−15зсз314790 0.0 1018460
03:00−19зсз23843 0.0 102235
06:00−20зсз22870 0.0 102621
09:00−17з22850 0.0 102973
12:00−9з24700 0.0 1027504
15:00−7зюз366723 0.0 1025845
18:00−9юз398275 0.0 1022569
21:00−13юз248486 0.0 102297
10 марта, ср
ср1000:00−13юз2388100 0.0 1020103
03:00−15зюз2292100 0.0 101820
06:00−16зюз229597 0.0 101831
09:00−14з249399 0.0 1018138
12:00−6сз596633 0.0 10181372
15:00−6сз586725 0.0 10201387
18:00−8зсз397612 0.0 1022541
21:00−14з22846 0.0 102620
11 марта, чт
чт1100:00−15з22880 0.0 102820
03:00−17зюз12890 0.0 102920
06:00−18з11880 0.0 103020
09:00−15зюз11850 0.0 103055
12:00−7юз24790 0.0 1027370
15:00−4зюз36800 0.0 1025613
18:00−4юз249127 0.0 1023199
21:00−10юз129519 0.0 102521